DIRECTV 10 1 31862U 07032A 21065.52259795 -.00000118 00000-0 00000-0 0 9991 2 31862 0.0450 317.4736 0000109 106.0524 186.2438 1.00271216 26279 BREEZE-M DEB [TANK] 1 31863U 07032B 21065.37888220 .00000249 00000-0 23029-3 0 9999 2 31863 45.8939 213.7873 4956425 154.7554 241.3626 5.52287941274514 BREEZE-M R/B 1 31864U 07032C 21065.50650340 -.00000561 00000-0 00000+0 0 9993 2 31864 20.7123 284.9688 5781631 232.4052 24.6662 2.01220480100447